Location: New Canada
(47.1017°N, 68.5042°W)
Time: 12:52:49
(UTC+00:00)

N. Korean satellite - Pass Details

Date: 07 December 2022
Orbit: 407 x 441 km, 97.3° (Epoch: 05 February)

Event Time Altitude Azimuth Distance (km) Brightness Sun altitude
Rises 10:46:54 0° 0° (N) 2,515 10.0 -12.9°
Reaches altitude 10° 10:49:14 10° 347° (NNW) 1,627 8.9 -12.5°
Maximum altitude 10:52:04 23° 292° (WNW) 1,014 7.6 -12.1°
Drops below altitude 10° 10:54:51 10° 238° (WSW) 1,594 8.8 -11.6°
Sets 10:57:06 0° 224° (SW) 2,450 9.9 -11.3°
